Погода в Щельябоже

Россия / Республика Коми     66°17′28″N   56°27′06″E
темп.,
°C
ветер,
м/с
пор.,
м/с
влажн.,
%
обл.,
%
осадки,
мм/ч
давл.,
гПа
погр.,
м
11 мая, вт
вт1100:00+3юз46735 0.0 102582
03:00+3ююз47765 0.0 1025103
06:00+7ююз61260100 0.0 1024395
09:00+9юз61054100 0.0 1024624
12:00+10юз101357100 0.0 10221615
15:00+7юз7985100 0.3 1023981
18:00+7зюз5980100 0.0 1023501
21:00+6зюз4787100 0.0 1024260
12 мая, ср
ср1200:00+5юз3593100 0.0 1023112
03:00+5ю4695100 0.1 1021133
06:00+7ю4995100 0.1 1019280
09:00+8юз51097100 1.6 1018316
12:00+12зюз71390100 0.0 1018562
15:00+13зсз91372100 0.3 10201144
18:00+11зсз91372100 0.1 10211159
21:00+7ссз6981100 0.1 1024635
13 мая, чт
чт1300:00+5ссз5783100 0.0 1027420
03:00+4с3587100 0.0 1029246
06:00+5ссв227283 0.0 1030512
09:00+7юв016137 0.0 1029729
12:00+10юз124996 0.0 10281014
15:00+13ю34475 0.0 1026915
18:00+16ю465152 0.0 1023913
21:00+13ю4107397 0.3 1020172
14 мая, пт
пт1400:00+14ююз61275100 0.2 1016236
03:00+14зюз61179100 0.2 1015177
06:00+16з71364100 0.0 1015613
09:00+18зсз810493 0.0 1015945
12:00+21зсз9124526 0.0 10141733
15:00+21сз91149100 0.0 10141742
18:00+15св666799 0.5 1015330
21:00+12всв457719 0.5 1016260
15 мая, сб
сб1500:00+10в358467 0.0 101599
03:00+10всв4586100 0.1 1014110
06:00+12в448299 0.6 1013244
09:00+14вюв3474100 0.6 1011315
12:00+16св3371100 0.3 1010288
15:00+11всв2265100 0.0 1015424
18:00
21:00+13вюв338610 0.0 100827